Location: Brady Lake
(41.1624°N, 81.3143°W)
Time: 22:46:11
(UTC+00:00)

N. Korean satellite - Pass Details

Date: 22 August 2022
Orbit: 428 x 468 km, 97.3° (Epoch: 24 September)

Event Time Altitude Azimuth Distance (km) Brightness Sun altitude
Rises 09:46:15 0° 30° (NNE) 2,529 11.2 -10.6°
Reaches altitude 10° 09:48:54 10° 51° (NE) 1,640 10.7 -10.1°
Maximum altitude 09:51:14 17° 93° (E) 1,273 9.7 -9.7°
Drops below altitude 10° 09:53:36 10° 136° (SE) 1,633 9.5 -9.3°
Sets 09:56:08 0° 157° (SSE) 2,478 10.2 -8.9°
